Weather History for KROC - July, 2013

Change the Weather History Date:

Tuesday, July 9, 2013

  Actual Average Record
Temperature  
Mean Temperature 77 °F 71 °F  
Max Temperature 83 °F 81 °F 102 °F (1936)
Min Temperature 71 °F 61 °F 42 °F (1963)
Degree Days  
Heating Degree Days 0 0  
Month to date heating degree days 0 6  
Since 1 June heating degree days 58 74  
Since 1 July heating degree days 0 6  
Cooling Degree Days 12 6  
Month to date cooling degree days 93 54  
Year to date cooling degree days 271 190  
Since 1 June cooling degree days 200 160  
Growing Degree Days 26 (Base 50)    
Moisture  
Dew Point 70 °F    
Average Humidity 78    
Maximum Humidity 93    
Minimum Humidity 62    
Precipitation  
Precipitation 0.04 in 0.11 in 1.26 in (2010)
Month to date precipitation 3.22 0.95  
Year to date precipitation 21.32 16.75  
Snow  
Snow 0.00 in 0.00 in 0.00 in ()
Month to date snowfall 0.0 0.0  
Since 1 June snowfall 0.0 0.0  
Since 1 July snowfall 0.0 0.0  
Snow Depth 0.00 in    
Sea Level Pressure  
Sea Level Pressure 29.99 in    
Wind  
Wind Speed 3 mph (SSW)    
Max Wind Speed 17 mph    
Max Gust Speed 23 mph    
Visibility 10 miles    
Events Rain    
T = Trace of Precipitation, MM = Missing Value Source: NWS Daily Summary

Daily Weather History Graph

Daily Weather History Graph

Search for Another Location

Airport or City:

Trip Planner

Search our weather history database for the weather conditions in past years. The results will help you decide how hot, cold, wet, or windy it might be!

Date:

Astronomy

Jul. 09, 2013 Rise Set
Actual Time 5:40 AM EDT 8:51 PM EDT
Civil Twilight 5:05 AM EDT 9:26 PM EDT
Nautical Twilight 4:20 AM EDT 10:10 PM EDT
Astronomical Twilight 3:26 AM EDT 11:04 PM EDT
Moon 7:06 AM EDT (7/9) 9:23 PM EDT (7/9)
Length of Visible Light 16h 20m
Length of Day
15h 11m
New Moon, 2% of the Moon is Illuminated
Jul 9
New Moon
Jul 15
First Quarter
Jul 22
Full
Jul 29
Last Quarter
Aug 6
New

Hourly Weather History & Observations

Time (EDT) Temp. Heat Index Dew Point Humidity Pressure Visibility Wind Dir Wind Speed Gust Speed Precip Events Conditions
12:54 AM 73.0 °F - 68.0 °F 84% 30.04 in 10.0 mi Calm Calm - 0.00 in   Mostly Cloudy
1:54 AM 72.0 °F - 68.0 °F 87% 30.04 in 10.0 mi Calm Calm - 0.00 in   Overcast
2:54 AM 71.1 °F - 68.0 °F 90% 30.03 in 10.0 mi SSW 3.5 mph - 0.00 in   Overcast
3:54 AM 71.1 °F - 68.0 °F 90% 30.03 in 9.0 mi Calm Calm - 0.00 in Rain Light Rain
4:54 AM 71.1 °F - 69.1 °F 93% 30.03 in 8.0 mi SSE 3.5 mph - 0.01 in Rain Light Rain
5:54 AM 71.1 °F - 69.1 °F 93% 30.03 in 8.0 mi Calm Calm - 0.02 in   Light Drizzle
6:54 AM 71.1 °F - 69.1 °F 93% 30.04 in 6.0 mi Calm Calm - 0.00 in   Overcast
7:54 AM 73.0 °F - 69.1 °F 87% 30.05 in 9.0 mi SSW 3.5 mph - N/A   Overcast
8:54 AM 73.9 °F - 69.1 °F 85% 30.06 in 10.0 mi SW 4.6 mph - N/A   Overcast
9:54 AM 77.0 °F - 69.1 °F 76% 30.05 in 10.0 mi Calm Calm - N/A   Overcast
10:54 AM 78.1 °F - 68.0 °F 71% 30.04 in 10.0 mi Calm Calm - N/A   Overcast
11:54 AM 80.1 °F 82.3 °F 66.9 °F 64% 30.02 in 10.0 mi SSW 8.1 mph - N/A   Mostly Cloudy
12:54 PM 81.0 °F 84.1 °F 69.1 °F 67% 30.01 in 10.0 mi SSW 12.7 mph 19.6 mph N/A   Mostly Cloudy
1:54 PM 75.9 °F - 69.1 °F 79% 30.02 in 10.0 mi SW 8.1 mph - 0.00 in Rain Light Rain
2:54 PM 79.0 °F - 70.0 °F 74% 30.00 in 10.0 mi Calm Calm - 0.00 in   Overcast
3:54 PM 80.1 °F 82.9 °F 69.1 °F 69% 29.98 in 10.0 mi WSW 6.9 mph - N/A   Overcast
4:54 PM 82.0 °F 86.3 °F 71.1 °F 69% 29.95 in 10.0 mi Calm Calm - N/A   Mostly Cloudy
5:39 PM 80.6 °F 84.6 °F 71.6 °F 74% 29.94 in 10.0 mi SSW 3.5 mph - N/A   Mostly Cloudy
5:54 PM 80.1 °F 83.2 °F 70.0 °F 71% 29.94 in 10.0 mi WSW 9.2 mph - N/A   Mostly Cloudy
6:16 PM 78.8 °F - 71.6 °F 78% 29.94 in 10.0 mi WNW 5.8 mph - N/A   Overcast
6:54 PM 77.0 °F - 72.0 °F 84% 29.94 in 10.0 mi Calm Calm - 0.01 in Rain Light Rain
7:54 PM 77.0 °F - 72.0 °F 84% 29.93 in 10.0 mi Calm Calm - 0.00 in   Scattered Clouds
8:54 PM 75.9 °F - 71.1 °F 85% 29.93 in 10.0 mi South 3.5 mph - N/A   Mostly Cloudy
9:54 PM 75.9 °F - 71.1 °F 85% 29.92 in 10.0 mi Calm Calm - 0.00 in   Mostly Cloudy
10:54 PM 75.0 °F - 71.1 °F 87% 29.91 in 10.0 mi South 3.5 mph - 0.00 in   Mostly Cloudy
11:54 PM 73.9 °F - 70.0 °F 87% 29.90 in 10.0 mi South 3.5 mph - 0.00 in   Mostly Cloudy